Location: Ferchesar
(52.6477°N, 12.4298°E)
Time: 11:33:24
(UTC+01:00)

Transit 4A - Pass Details

Date: 11 December 2021
Orbit: 864 x 981 km, 66.8° (Epoch: 20 January)

Event Time Altitude Azimuth Distance (km) Brightness Sun altitude
Rises 18:40:11 0° 223° (SW) 3,473 11.7 -23.6°
Reaches altitude 10° 18:42:38 10° 225° (SW) 2,551 10.9 -23.9°
Maximum altitude 18:48:33 76° 311° (NW) 938 7.9 -24.8°
Enters shadow 18:50:36 44° 28° (NNE) 1,254 8.3 -25.1°
